OpenBCM V1.08-5-g2f4a (Linux)

Packet Radio Mailbox

IZ3LSV

[San Dona' di P. JN]

 Login: GUEST





  
I0OJJ  > KEPS     12.08.25 02:40l 320 Lines 15287 Bytes #146 (0) @ AMSAT
BID : ORB25224.1
Read: GUEST
Subj: 2Line Orbital Elements 25224.AMSAT
Path: IZ3LSV<IK6IHL<IK7NXU<HB9ON<HB9ON<PI8ZTM<VK2IO<VK2RZ<LU9DCE<EA2RCF<
      I0OJJ
Sent: 250812/0025z @:I0OJJ.ITA.EU [Rome] obcm1.08-10-g596e
From: I0OJJ @ I0OJJ.ITA.EU (Gustavo)
To:   KEPS @ AMSAT
X-Info: This message was generated automatically


QST de W1STR

AMSAT Orbital Elements for Amateur Satellites in TLE Format
From Orbital Analysis Office
New England Sci-Tech STEM Education Center
Natick, MA August 12, 2025
To all radio amateurs


These element sets describe the orbits of various satellites 
in use by the amateur radio community. For details see:
www.amsat.org/keplerian-elements-formats/

A daily update of element sets is available at:
www.amsat.org/tle/daily-bulletin.txt
or without bulletin text:
www.amsat.org/tle/dailytle.txt


AO-07
1 07530U 74089B   25223.79337622 -.00000038  00000-0  54717-4 0  9996
2 07530 101.9958 228.7342 0012294   3.5385 180.2087 12.53690753321980
UO-11
1 14781U 84021B   25223.48133161  .00001366  00000-0  14893-3 0  9991
2 14781  97.7594 188.6282 0009134 122.5435 237.6666 14.89542444211003
AO-27
1 22825U 93061C   25223.43478703  .00000112  00000-0  59805-4 0  9993
2 22825  98.7325 285.2908 0007304 291.5794  68.4609 14.30816714662709
FO-29
1 24278U 96046B   25223.59757739  .00000000  00000-0  35161-4 0  9994
2 24278  98.5661 109.1770 0349930 179.1639 181.0160 13.53251637431291
NOAA-15
1 25338U 98030A   25223.84692399  .00000170  00000-0  87464-4 0  9996
2 25338  98.5337 247.4497 0010513 167.6245 192.5196 14.27010178417428
GO-32
1 25397U 98043D   25223.56408827  .00000065  00000-0  48365-4 0  9995
2 25397  98.9757 204.0133 0002082  55.3172 304.8202 14.24328543407254
ISS
1 25544U 98067A   25223.82969193  .00008972  00000-0  16234-3 0  9996
2 25544  51.6349  31.2739 0001221 180.1031 179.9958 15.50462832523795
NO-44
1 26931U 01043C   25223.58566000  .00000151  00000-0  87446-4 0  9993
2 26931  67.0526 324.9341 0006646 276.3897  83.6448 14.31760885246120
SO-50
1 27607U 02058C   25223.59168084  .00001122  00000-0  15581-3 0  9991
2 27607  64.5539   6.0057 0062987 320.5061  39.1462 14.81776636218569
CO-55
1 27844U 03031E   25223.56577384  .00000323  00000-0  15951-3 0  9993
2 27844  98.6774 231.0302 0009836  12.3051 347.8366 14.24038236147605
CO-57
1 27848U 03031J   25223.54373298  .00000265  00000-0  13623-3 0  9992
2 27848  98.6802 230.9663 0010093  29.1082 331.0657 14.23366970147376
RS-22
1 27939U 03042A   25223.81150927  .00001185  00000-0  19496-3 0  9993
2 27939  98.3337  34.8141 0011717 163.7920 309.3010 14.72483676170137
CO-58
1 28895U 05043F   25223.57002575  .00001738  00000-0  28988-3 0  9996
2 28895  98.2580   8.7417 0015676 106.4542 253.8388 14.71199376 56208
CO-65
1 32785U 08021C   25223.84731119  .00005418  00000-0  38606-3 0  9998
2 32785  97.7909 195.5183 0009738  12.4844 347.6621 15.04982862938666
CO-66
1 32791U 08021J   25223.86321529  .00012912  00000-0  60126-3 0  9996
2 32791  97.7321 205.3882 0001936 347.9516  12.1671 15.20054398940182
RS-30
1 32953U 08025A   25223.81939468  .00000011  00000-0  12255-4 0  9990
2 32953  82.5041 187.8522 0017889 268.4641  91.4389 12.43166974781385
NOAA-19
1 33591U 09005A   25223.84520521  .00000152  00000-0  10494-3 0  9995
2 33591  98.9935 288.8934 0013828 180.7511 179.3642 14.13395123851045
SRMSAT
1 37841U 11058D   25223.46589581  .00000409  00000-0  78702-4 0  9999
2 37841  19.9712 133.9920 0011743  37.4658 126.6614 14.11451776714005
ZACUBE-1
1 39417U 13066B   25223.35472741  .00004678  00000-0  40265-3 0  9992
2 39417  97.7834 180.0696 0043249 199.7733 160.1814 14.97141971634306
Delfi-N3xt
1 39428U 13066N   25223.74218815  .00005440  00000-0  54649-3 0  9996
2 39428  97.8308 140.7054 0084540 151.3178 209.2727 14.89013132628659
GOMX-1
1 39430U 13066Q   25223.81867698  .00001810  00000-0  28580-3 0  9998
2 39430  97.6772  78.5894 0131856 350.7132   9.1637 14.67862096624686
LO-74
1 39440U 13066AA  25223.59687846  .00005212  00000-0  52303-3 0  9999
2 39440  97.8517 167.7437 0060619 333.6731  26.1409 14.90373088630826
AO-73
1 39444U 13066AE  25223.47350515  .00005641  00000-0  41551-3 0  9999
2 39444  97.7861 185.6742 0041892 170.6998 189.5012 15.03039963633031
DTUSAT-2
1 40030U 14033W   25223.50137753  .00006423  00000-0  41049-3 0  9999
2 40030  98.0596 198.4109 0008565 195.7582 164.3380 15.08984232605883
EO-80
1 40032U 14033Y   25223.45213597  .00006475  00000-0  41277-3 0  9996
2 40032  98.0486 197.9266 0009909 138.7145 221.4833 15.09060169605856
LILACSAT-2
1 40908U 15049K   25223.85113098  .00012390  00000-0  30998-3 0  9996
2 40908  97.5039 245.7757 0006932 296.4440  63.6094 15.40231375547962
IO-86
1 40931U 15052B   25151.18580175  .00001241  00000-0  78118-4 0  9996
2 40931   6.0006  24.0987 0012733 338.8432  21.1169 14.78805930523159
Horyu-4
1 41340U 16012D   25222.90634306  .00026499  00000-0  65232-3 0  9997
2 41340  30.9963  72.0588 0007600 351.3836   8.6679 15.39340410522393
Lapan A3
1 41603U 16040E   25223.80786311  .00003742  00000-0  13009-3 0  9995
2 41603  97.1390 225.9547 0012287  51.0160 309.2174 15.30248235507452
CAS-2T
1 41847U 16066G   25223.61804953  .00000828  00000-0  12705-3 0  9999
2 41847  98.4172 297.5234 0345261 347.9809  11.3292 14.43646833460112
CAS-4B
1 42759U 17034B   25223.55180218  .00101389  00000-0  71826-3 0  9995
2 42759  43.0041 304.2416 0021897  10.0103 350.1197 15.72582652452485
CAS-4A
1 42761U 17034D   25223.58468871  .00117892  00000-0  76038-3 0  9991
2 42761  43.0080 300.3305 0022757  15.4933 344.6628 15.74663018452521
TechnoSat
1 42829U 17042E   25223.73846668  .00004021  00000-0  30946-3 0  9993
2 42829  97.3972  29.4363 0018095  68.3505 291.9646 15.02085662440203
AO-91
1 43017U 17073E   25223.61446775  .00007048  00000-0  35710-3 0  9995
2 43017  97.5155  92.7995 0168359 312.1474  46.5550 15.05719154418695
S-Net D
1 43186U 18014G   25223.69705776  .00004985  00000-0  29101-3 0  9999
2 43186  97.5549 125.9590 0009381  19.7414 340.4177 15.12353181411913
S-Net B
1 43187U 18014H   25223.70328542  .00004705  00000-0  27498-3 0  9991
2 43187  97.5556 125.9401 0009928  14.7726 345.3792 15.12333864411914
S-Net A
1 43188U 18014J   25223.63106199  .00004916  00000-0  28695-3 0  9990
2 43188  97.5563 126.0269 0009832  15.5957 344.5574 15.12357918411900
S-Net C
1 43189U 18014K   25223.44118491  .00004716  00000-0  27558-3 0  9993
2 43189  97.5581 125.8640 0011106   7.8993 352.2410 15.12328106410420
Ten-Koh
1 43677U 18084G   25223.47227004  .00002601  00000-0  20968-3 0  9995
2 43677  98.0840  38.2176 0008523  63.7342 296.4755 15.00828312369677
PO-101
1 43678U 18084H   25223.82629972  .00002178  00000-0  18697-3 0  9990
2 43678  98.1056  42.3852 0008721  80.5123 279.7083 14.98570228369853
QO-100
1 43700U 18090A   25223.83101322  .00000145  00000-0  00000+0 0  9995
2 43700   0.0152  94.1834 0001145  51.2489 140.0613  1.00270419 24817
MinXSS-2
1 43758U 18099A   25223.45432016  .00016900  00000-0  63034-3 0  9998
2 43758  97.4975 289.7531 0009866 294.9279  65.0934 15.27446427366561
AO-95
1 43770U 18099N   25223.61276645  .00008395  00000-0  41292-3 0  9995
2 43770  97.4867 281.0264 0009956   2.1940 357.9336 15.18225220366113
SNUSat 2
1 43782U 18099AA  25223.61699156  .00007084  00000-0  37807-3 0  9995
2 43782  97.4549 277.2604 0010187 297.8746  62.1454 15.15403266366046
SnugLite
1 43784U 18099AC  25223.69498021  .00009706  00000-0  47278-3 0  9999
2 43784  97.4361 277.0326 0001873 304.6661  55.4396 15.18558262366213
ITASat 1
1 43786U 18099AE  25223.56237437  .00006893  00000-0  38639-3 0  9994
2 43786  97.4514 276.5272 0013618 355.1592   4.9505 15.13623700365982
EAGLET 1
1 43790U 18099AJ  25223.60067079  .00004073  00000-0  25761-3 0  9997
2 43790  97.4716 276.3053 0011095 341.2050  18.8768 15.09514734365579
ESEO
1 43792U 18099AL  25223.86036418  .00001681  00000-0  12975-3 0  9995
2 43792  97.4449 268.9635 0010583 311.6816  48.3504 15.02823204365326
CSIM
1 43793U 18099AM  25221.21166546  .13619297  25930-5  68059-3 0  9999
2 43793  97.4554 304.9540 0017217 272.8328  87.1002 16.40904822367265
JO-97
1 43803U 18099AX  25223.65766030  .00011279  00000-0  49541-3 0  9998
2 43803  97.4610 282.2068 0005736 283.8540  76.2058 15.22074922366362
Suomi 100
1 43804U 18099AY  25223.38231163  .00009753  00000-0  46287-3 0  9991
2 43804  97.4679 281.0429 0010545 290.2306  69.7794 15.19416540366234
ISAT
1 43879U 18111D   25222.72038230  .00022560  00000-0  72963-3 0  9996
2 43879  97.5906 138.5617 0007234 356.5876   3.5315 15.32056465361189
UWE-4
1 43880U 18111E   25223.72500210  .00015526  00000-0  57747-3 0  9998
2 43880  97.5846 137.6054 0010941   0.8745 359.2511 15.27550237361260
Sparrow
1 43881U 18111F   25223.75913695  .00022219  00000-0  68746-3 0  9995
2 43881  97.6057 142.7591 0007244  37.3124 322.8620 15.33475889361462
Prox-1
1 44339U 19036A   25223.50329859  .00010546  00000-0  12942-2 0  9993
2 44339  23.9974   8.1304 0007966  67.3414 292.7925 14.81074054327358
Taurus 1
1 44530U 19059C   25223.85411537  .00006343  00000-0  11533-2 0  9999
2 44530  98.6138   6.2992 0009397 192.9925 167.1037 14.66485502313212
Duchifat 3
1 44854U 19089C   25223.53404840  .00057230  00000-0  91966-3 0  9995
2 44854  36.9414 313.4346 0004939 108.3977 251.7319 15.51951698312787
TO-108
1 44881U 19093C   25223.80322192  .00000948  00000-0  11522-3 0  9993
2 44881  97.7894 298.1252 0014377  29.6142 330.5884 14.85712568305462
FloripaSat 1
1 44885U 19093G   25223.83983089  .00005441  00000-0  45295-3 0  9995
2 44885  97.8141 311.5909 0009508 355.2032   4.9098 14.99047564306223
RS-44
1 44909U 19096E   25223.33349228  .00000011  00000-0 -65876-5 0  9999
2 44909  82.5226 185.5875 0217980 148.5779 212.8561 12.79742413262713
UPMSat 2
1 46276U 20061E   25223.47307470  .00119872  00000-0  68558-3 0  9993
2 46276  97.2378 300.3591 0001455 201.3366 158.7841 15.78514878275350
